Location: Walbrzych
(50.7833°N, 16.2833°E)
Time: 06:47:49
(UTC+02:00)

ISS - Visible Passes

Search period start: 25 September 2018 00:00
Search period end: 05 October 2018 00:00
Orbit: 403 x 408 km, 51.6° (Epoch: 25 September)

Date Brightness Start Highest point End Pass type
(mag) Time Alt. Az. Time Alt. Az. Time Alt. Az.
25 Sep -2.4 19:28:13 10° SSW 19:30:55 23° SE 19:33:23 11° E visible
25 Sep -2.7 21:03:48 10° WSW 21:06:05 41° WSW 21:06:05 41° WSW visible
26 Sep -3.7 20:12:01 10° WSW 20:15:16 59° SSE 20:16:23 35° E visible
26 Sep -0.8 21:48:29 10° W 21:49:04 14° W 21:49:04 14° W visible
27 Sep -3.2 19:20:21 10° SW 19:23:28 41° SSE 19:26:36 10° E visible
27 Sep -3.2 20:56:34 10° W 20:59:17 57° W 20:59:17 57° W visible
28 Sep -3.9 20:04:39 10° WSW 20:07:58 86° SSE 20:09:26 31° E visible
28 Sep -0.9 21:41:15 10° W 21:42:06 17° W 21:42:06 17° W visible
29 Sep -3.7 19:12:48 10° WSW 19:16:04 67° SSE 19:19:21 10° ENE visible
29 Sep -3.4 20:49:19 10° W 20:52:11 61° WNW 20:52:11 61° WNW visible
30 Sep -3.8 19:57:21 10° W 20:00:40 77° N 20:02:14 28° ENE visible
30 Sep -1.0 21:33:56 10° WNW 21:34:54 18° WNW 21:34:54 18° WNW visible
01 Oct -3.8 19:05:23 10° WSW 19:08:42 87° N 19:12:01 10° ENE visible
01 Oct -3.5 20:41:59 10° W 20:44:55 66° WNW 20:44:55 66° WNW visible
02 Oct -3.8 19:50:01 10° W 19:53:20 75° N 19:54:55 28° E visible
02 Oct -1.0 21:26:34 10° WNW 21:27:35 18° W 21:27:35 18° W visible
03 Oct -3.7 18:58:02 10° W 19:01:20 75° N 19:04:38 10° E visible
03 Oct -3.6 20:34:36 10° WNW 20:37:35 67° WSW 20:37:35 67° WSW visible
04 Oct -3.9 19:42:37 10° WNW 19:45:56 86° NNE 19:47:35 27° E visible
04 Oct -1.0 21:19:15 10° W 21:20:15 17° W 21:20:15 17° W visible
